AE0NK Weather Reports


time (UTC)temp
C
wind
direction
speed
KPH
gust
KPH
rain 1hr
cm
rain 24hr
cm
rain mn
cm
humidity
%
barometer
mb
20260505035317 14 309 1.6 3.2 0.00 0.00 0.00 38 1004.9
20260505034815 15 304 0.0 1.6 0.00 0.00 0.00 39 1004.9
20260505034312 15 298 0.0 1.6 0.00 0.00 0.00 41 1004.8
20260505033830 15 298 0.0 8.0 0.00 0.00 0.00 41 1004.8
20260505033327 15 298 3.2 8.0 0.00 0.00 0.00 38 1004.7
20260505032825 15 317 3.2 6.4 0.00 0.00 0.00 37 1004.6
20260505032322 15 300 3.2 6.4 0.00 0.00 0.00 37 1004.7
20260505031819 15 313 3.2 9.7 0.00 0.00 0.00 37 1004.7
20260505031317 15 305 3.2 9.7 0.00 0.00 0.00 37 1004.6
20260505030814 15 315 3.2 6.4 0.00 0.00 0.00 36 1004.5
20260505030327 15 312 3.2 12.9 0.00 0.00 0.00 36 1004.5
20260505025822 16 309 4.8 12.9 0.00 0.00 0.00 36 1004.5
20260505025319 16 342 6.4 12.9 0.00 0.00 0.00 36 1004.5
20260505024816 16 325 3.2 12.9 0.00 0.00 0.00 36 1004.4
20260505024314 16 355 1.6 30.6 0.00 0.00 0.00 36 1004.4
20260505023811 16 327 6.4 30.6 0.00 0.00 0.00 35 1004.1
20260505023329 16 24 4.8 17.7 0.00 0.00 0.00 34 1004.0
20260505022828 16 331 4.8 17.7 0.00 0.00 0.00 35 1004.0
20260505022326 16 355 4.8 16.1 0.00 0.00 0.00 34 1003.6
20260505021824 16 277 3.2 9.7 0.00 0.00 0.00 34 1003.5
20260505021323 16 315 0.0 16.1 0.00 0.00 0.00 37 1003.3
20260505020821 17 323 4.8 16.1 0.00 0.00 0.00 35 1003.2
20260505020319 17 337 3.2 12.9 0.00 0.00 0.00 33 1003.1
20260505015815 17 331 4.8 12.9 0.00 0.00 0.00 34 1002.9
20260505015313 17 326 4.8 24.1 0.00 0.00 0.00 31 1002.9
20260505014829 17 9 4.8 24.1 0.00 0.00 0.00 34 1002.8
20260505014327 17 291 4.8 14.5 0.00 0.00 0.00 31 1002.6
20260505013826 17 350 4.8 14.5 0.00 0.00 0.00 32 1002.5
20260505013323 17 355 3.2 16.1 0.00 0.00 0.00 35 1002.3
20260505012821 18 44 6.4 16.1 0.00 0.00 0.00 33 1002.0
20260505012338 18 22 3.2 14.5 0.00 0.00 0.00 37 1001.9
20260505011829 18 313 4.8 14.5 0.00 0.00 0.00 35 1001.8
20260505011327 18 38 6.4 24.1 0.00 0.00 0.00 33 1001.9
20260505010826 18 350 8.0 24.1 0.00 0.00 0.00 33 1001.6
20260505010327 18 15 4.8 12.9 0.00 0.00 0.00 34 1001.4
20260505005822 19 9 4.8 12.9 0.00 0.00 0.00 33 1001.3
20260505005318 19 28 3.2 12.9 0.00 0.00 0.00 32 1001.0
20260505004837 20 333 4.8 12.9 0.00 0.00 0.00 31 1000.8
20260505004328 20 343 4.8 22.5 0.00 0.00 0.00 32 1000.7
20260505003827 20 355 6.4 22.5 0.00 0.00 0.00 32 1000.6
20260505003324 21 360 8.0 22.5 0.00 0.00 0.00 31 1000.4
20260505002822 21 312 9.7 22.5 0.00 0.00 0.00 31 1000.2
20260505002320 21 47 8.0 20.9 0.00 0.00 0.00 31 1000.1
20260505001818 21 346 6.4 22.5 0.00 0.00 0.00 33 1000.1
20260505001317 22 341 8.0 22.5 0.00 0.00 0.00 30 1000.0
20260505000814 22 66 4.8 20.9 0.00 0.00 0.00 30 999.8
20260505000315 22 348 8.0 22.5 0.00 0.00 0.00 31 999.7
20260504235830 22 17 8.0 22.5 0.00 0.00 0.00 30 999.5
20260504235327 22 355 8.0 20.9 0.00 0.00 0.00 31 999.4
20260504234821 23 288 4.8 19.3 0.00 0.00 0.00 31 999.3
20260504234320 23 28 4.8 14.5 0.00 0.00 0.00 32 999.2
20260504233817 23 21 3.2 30.6 0.00 0.00 0.00 31 999.1
20260504233317 23 258 8.0 30.6 0.00 0.00 0.00 30 999.0
20260504232815 24 323 8.0 22.5 0.00 0.00 0.00 29 999.0
20260504232314 24 337 11.3 22.5 0.00 0.00 0.00 29 999.0
20260504231812 24 298 4.8 16.1 0.00 0.00 0.00 33 999.1
20260504231329 24 44 3.2 25.7 0.00 0.00 0.00 33 999.0
20260504230827 25 64 4.8 25.7 0.00 0.00 0.00 33 998.8
20260504230326 25 22 11.3 20.9 0.00 0.00 0.00 32 998.7
20260504225820 25 344 9.7 17.7 0.00 0.00 0.00 32 998.8
20260504225336 25 50 6.4 17.7 0.00 0.00 0.00 33 998.8
20260504224828 25 21 8.0 19.3 0.00 0.00 0.00 34 998.7
20260504224324 25 132 6.4 30.6 0.00 0.00 0.00 35 998.7
20260504223821 25 305 4.8 14.5 0.00 0.00 0.00 39 998.7
20260504223318 25 355 3.2 14.5 0.00 0.00 0.00 38 998.6
20260504222815 25 230 1.6 14.5 0.00 0.00 0.00 38 998.4
20260504222315 25 255 3.2 12.9 0.00 0.00 0.00 37 998.1
20260504221813 24 319 3.2 9.7 0.00 0.00 0.00 45 998.1
20260504221312 23 223 4.8 9.7 0.00 0.00 0.00 44 998.0
20260504220829 23 215 0.0 8.0 0.00 0.00 0.00 50 998.3
20260504220326 23 198 1.6 8.0 0.00 0.00 0.00 44 998.4
20260504215822 23 200 1.6 8.0 0.00 0.00 0.00 43 998.3
20260504215319 24 196 3.2 12.9 0.00 0.00 0.00 40 998.5
20260504214817 25 257 4.8 12.9 0.00 0.00 0.00 38 998.5
20260504214316 25 198 4.8 11.3 0.00 0.00 0.00 37 998.5
20260504213814 25 245 1.6 6.4 0.00 0.00 0.00 40 998.5
20260504213315 24 209 1.6 8.0 0.00 0.00 0.00 43 998.6
20260504212814 23 208 4.8 12.9 0.00 0.00 0.00 45 998.7
20260504212313 22 221 6.4 14.5 0.00 0.00 0.00 46 998.8
20260504211811 23 209 6.4 22.5 0.00 0.00 0.00 44 998.7
20260504211331 23 195 6.4 22.5 0.00 0.00 0.00 40 999.0
20260504210829 23 278 1.6 12.9 0.00 0.00 0.00 39 998.8
20260504210328 23 329 3.2 12.9 0.00 0.00 0.00 48 998.8
20260504205823 23 305 4.8 16.1 0.00 0.00 0.00 39 998.6
20260504205320 23 22 6.4 16.1 0.00 0.00 0.00 45 998.6
20260504204817 22 327 1.6 11.3 0.00 0.00 0.00 49 999.0
20260504204315 22 296 3.2 14.5 0.00 0.00 0.00 50 998.9
20260504203813 23 327 3.2 19.3 0.00 0.00 0.00 50 999.0
20260504203331 26 338 8.0 19.3 0.00 0.00 0.00 30 999.0
20260504202828 26 302 3.2 14.5 0.00 0.00 0.00 29 998.6
20260504202323 27 213 1.6 14.5 0.00 0.00 0.00 30 998.7
20260504201822 27 312 6.4 12.9 0.00 0.00 0.00 30 998.8
20260504201318 27 304 6.4 12.9 0.00 0.00 0.00 29 998.9
20260504200816 27 227 4.8 16.1 0.00 0.00 0.00 30 999.0
20260504200314 27 348 6.4 16.1 0.00 0.00 0.00 29 999.1
20260504195829 27 166 4.8 17.7 0.00 0.00 0.00 29 999.0
20260504195326 27 149 4.8 17.7 0.00 0.00 0.00 31 999.2
20260504194826 26 201 8.0 19.3 0.00 0.00 0.00 30 999.3
20260504194324 27 329 8.0 22.5 0.00 0.00 0.00 29 999.3
20260504193822 27 323 8.0 22.5 0.00 0.00 0.00 28 999.3
20260504193318 27 15 4.8 16.1 0.00 0.00 0.00 30 999.3
20260504192816 27 183 4.8 12.9 0.00 0.00 0.00 30 999.3
20260504192314 27 313 6.4 17.7 0.00 0.00 0.00 30 999.5
20260504191813 26 332 4.8 16.1 0.00 0.00 0.00 31 999.4
20260504191331 26 323 8.0 16.1 0.00 0.00 0.00 29 999.4
20260504190831 26 271 6.4 12.9 0.00 0.00 0.00 31 999.6
20260504190329 26 329 4.8 17.7 0.00 0.00 0.00 32 999.6
20260504185822 26 165 8.0 17.7 0.00 0.00 0.00 31 999.7
20260504185318 26 340 4.8 17.7 0.00 0.00 0.00 31 999.6
20260504184816 26 5 6.4 20.9 0.00 0.00 0.00 32 999.7
20260504184316 27 346 8.0 20.9 0.00 0.00 0.00 31 999.8
20260504183813 26 287 6.4 20.9 0.00 0.00 0.00 31 999.8
20260504183326 26 180 6.4 20.9 0.00 0.00 0.00 32 999.8
20260504182824 26 238 6.4 17.7 0.00 0.00 0.00 32 999.8
20260504182320 27 280 4.8 11.3 0.00 0.00 0.00 32 999.8
20260504181817 27 209 3.2 14.5 0.00 0.00 0.00 32 999.9
20260504181315 27 165 3.2 14.5 0.00 0.00 0.00 31 999.9
20260504180330 26 218 4.8 19.3 0.00 0.00 0.00 31 999.8
20260504175824 26 200 4.8 19.3 0.00 0.00 0.00 31 999.8
20260504175322 26 360 6.4 16.1 0.00 0.00 0.00 30 999.8
20260504174820 27 190 4.8 14.5 0.00 0.00 0.00 31 999.9
20260504174319 26 198 3.2 16.1 0.00 0.00 0.00 32 999.8
20260504173817 26 238 4.8 16.1 0.00 0.00 0.00 32 999.9
20260504173314 26 271 6.4 11.3 0.00 0.00 0.00 33 999.9
20260504172812 26 188 4.8 14.5 0.00 0.00 0.00 35 999.9
20260504172330 26 323 4.8 14.5 0.00 0.00 0.00 34 1000.0
20260504171824 26 167 3.2 16.1 0.00 0.00 0.00 35 1000.0
20260504171322 26 246 6.4 16.1 0.00 0.00 0.00 36 1000.2
20260504170818 26 236 4.8 12.9 0.00 0.00 0.00 35 1000.2
20260504170316 26 180 3.2 12.9 0.00 0.00 0.00 37 1000.1
20260504160321 23 199 4.8 9.7 0.00 0.00 0.00 41 1000.8
20260504150823 22 238 4.8 11.3 0.00 0.00 0.00 46 1001.8
20260504150320 21 188 4.8 12.9 0.00 0.00 0.00 46 1001.9
20260504141313 17 192 3.2 9.7 0.00 0.00 0.00 55 1002.1
20260504140812 17 202 4.8 11.3 0.00 0.00 0.00 55 1002.2
20260504140331 17 238 6.4 11.3 0.00 0.00 0.00 55 1002.2
20260504130821 12 219 3.2 8.0 0.00 0.00 0.00 64 1002.7
20260504110322 9 197 3.2 4.8 0.00 0.00 0.00 69 1003.2
20260504081824 10 192 0.0 3.2 0.00 0.00 0.00 61 1004.6
20260504081323 10 192 0.0 3.2 0.00 0.00 0.00 61 1004.7
20260504080822 10 192 1.6 6.4 0.00 0.00 0.00 61 1004.6
20260504080317 10 190 1.6 4.8 0.00 0.00 0.00 61 1004.7
20260504070327 11 189 0.0 0.0 0.00 0.00 0.00 59 1005.1
20260504050326 14 259 0.0 1.6 0.00 0.00 0.00 43 1006.6
20260504045815 15 259 0.0 0.0 0.00 0.00 0.00 41 1006.5
20260504045313 15 259 0.0 0.0 0.00 0.00 0.00 41 1006.4
20260504044828 15 259 0.0 3.2 0.00 0.00 0.00 41 1006.6
20260504044326 15 259 0.0 6.4 0.00 0.00 0.00 41 1006.8
20260504043824 15 263 1.6 4.8 0.00 0.00 0.00 40 1006.6
20260504043323 15 263 0.0 0.0 0.00 0.00 0.00 39 1006.6
20260504042821 15 263 0.0 0.0 0.00 0.00 0.00 39 1006.6
20260504042319 15 263 0.0 3.2 0.00 0.00 0.00 39 1006.7
20260504041816 16 263 1.6 3.2 0.00 0.00 0.00 39 1006.7
20260504041314 16 277 0.0 0.0 0.00 0.00 0.00 38 1006.7
20260504040812 16 277 0.0 0.0 0.00 0.00 0.00 38 1006.7
20260504040330 16 277 0.0 0.0 0.00 0.00 0.00 37 1006.8
20260504035826 16 277 0.0 3.2 0.00 0.00 0.00 37 1006.8